Year,Month,Day,Hour,Minute,Value (Times are PST for temperature in C)
2013,08,18,00,00,14.40
2013,08,18,00,01,14.40
2013,08,18,00,02,14.40
2013,08,18,00,03,14.30
2013,08,18,00,04,14.30
2013,08,18,00,05,14.30
2013,08,18,00,06,14.30
2013,08,18,00,07,14.30
2013,08,18,00,08,14.30
2013,08,18,00,09,14.20
2013,08,18,00,10,14.20
2013,08,18,00,11,14.20
2013,08,18,00,12,14.20
2013,08,18,00,13,14.10
2013,08,18,00,14,14.10
2013,08,18,00,15,14.10
2013,08,18,00,16,14.10
2013,08,18,00,17,14.10
2013,08,18,00,18,14.00
2013,08,18,00,19,14.00
2013,08,18,00,20,14.00
2013,08,18,00,21,13.90
2013,08,18,00,22,13.90
2013,08,18,00,23,13.90
2013,08,18,00,24,13.90
2013,08,18,00,25,13.90
2013,08,18,00,26,13.90
2013,08,18,00,27,13.90
2013,08,18,00,28,13.90
2013,08,18,00,29,13.80
2013,08,18,00,30,13.80
2013,08,18,00,31,13.80
2013,08,18,00,32,13.80
2013,08,18,00,33,13.80
2013,08,18,00,34,13.80
2013,08,18,00,35,13.80
2013,08,18,00,36,13.80
2013,08,18,00,37,13.70
2013,08,18,00,38,13.70
2013,08,18,00,39,13.70
2013,08,18,00,40,13.70
2013,08,18,00,41,13.70
2013,08,18,00,42,13.70
2013,08,18,00,43,13.70
2013,08,18,00,44,13.60
2013,08,18,00,45,13.60
2013,08,18,00,46,13.60
2013,08,18,00,47,13.60
2013,08,18,00,48,13.60
2013,08,18,00,49,13.60
2013,08,18,00,50,13.60
2013,08,18,00,51,13.60
2013,08,18,00,52,13.50
2013,08,18,00,53,13.50
2013,08,18,00,54,13.50
2013,08,18,00,55,13.50
2013,08,18,00,56,13.50
2013,08,18,00,57,13.50
2013,08,18,00,58,13.50
2013,08,18,00,59,13.50
2013,08,18,01,00,13.50
2013,08,18,01,01,13.50
2013,08,18,01,02,13.50
2013,08,18,01,03,13.40
2013,08,18,01,04,13.50
2013,08,18,01,05,13.40
2013,08,18,01,06,13.40
2013,08,18,01,07,13.40
2013,08,18,01,08,13.40
2013,08,18,01,09,13.40
2013,08,18,01,10,13.40
2013,08,18,01,11,13.40
2013,08,18,01,12,13.40
2013,08,18,01,13,13.40
2013,08,18,01,14,13.40
2013,08,18,01,15,13.40
2013,08,18,01,16,13.40
2013,08,18,01,17,13.40
2013,08,18,01,18,13.30
2013,08,18,01,19,13.30
2013,08,18,01,20,13.30
2013,08,18,01,21,13.30
2013,08,18,01,22,13.30
2013,08,18,01,23,13.30
2013,08,18,01,24,13.30
2013,08,18,01,25,13.30
2013,08,18,01,26,13.20
2013,08,18,01,27,13.20
2013,08,18,01,28,13.20
2013,08,18,01,29,13.20
2013,08,18,01,30,13.20
2013,08,18,01,31,13.20
2013,08,18,01,32,13.20
2013,08,18,01,33,13.20
2013,08,18,01,34,13.20
2013,08,18,01,35,13.10
2013,08,18,01,36,13.10
2013,08,18,01,37,13.10
2013,08,18,01,38,13.10
2013,08,18,01,39,13.10
2013,08,18,01,40,13.10
2013,08,18,01,41,13.10
2013,08,18,01,42,13.10
2013,08,18,01,43,13.00
2013,08,18,01,44,13.00
2013,08,18,01,45,13.00
2013,08,18,01,46,12.90
2013,08,18,01,47,12.90
2013,08,18,01,48,12.90
2013,08,18,01,49,12.90
2013,08,18,01,50,12.90
2013,08,18,01,51,12.90
2013,08,18,01,52,12.80
2013,08,18,01,53,12.80
2013,08,18,01,54,12.80
2013,08,18,01,55,12.80
2013,08,18,01,56,12.80
2013,08,18,01,57,12.70
2013,08,18,01,58,12.70
2013,08,18,01,59,12.70
2013,08,18,02,00,12.70
2013,08,18,02,01,12.70
2013,08,18,02,02,12.70
2013,08,18,02,03,12.70
2013,08,18,02,04,12.60
2013,08,18,02,05,12.60
2013,08,18,02,06,12.60
2013,08,18,02,07,12.60
2013,08,18,02,08,12.60
2013,08,18,02,09,12.60
2013,08,18,02,10,12.60
2013,08,18,02,11,12.50
2013,08,18,02,12,12.50
2013,08,18,02,13,12.50
2013,08,18,02,14,12.50
2013,08,18,02,15,12.50
2013,08,18,02,16,12.50
2013,08,18,02,17,12.50
2013,08,18,02,18,12.40
2013,08,18,02,19,12.40
2013,08,18,02,20,12.40
2013,08,18,02,21,12.40
2013,08,18,02,22,12.30
2013,08,18,02,23,12.30
2013,08,18,02,24,12.30
2013,08,18,02,25,12.30
2013,08,18,02,26,12.30
2013,08,18,02,27,12.30
2013,08,18,02,28,12.30
2013,08,18,02,29,12.30
2013,08,18,02,30,12.20
2013,08,18,02,31,12.20
2013,08,18,02,32,12.20
2013,08,18,02,33,12.20
2013,08,18,02,34,12.20
2013,08,18,02,35,12.20
2013,08,18,02,36,12.20
2013,08,18,02,37,12.20
2013,08,18,02,38,12.10
2013,08,18,02,39,12.10
2013,08,18,02,40,12.10
2013,08,18,02,41,12.10
2013,08,18,02,42,12.10
2013,08,18,02,43,12.10
2013,08,18,02,44,12.10
2013,08,18,02,45,12.10
2013,08,18,02,46,12.10
2013,08,18,02,47,12.00
2013,08,18,02,48,12.00
2013,08,18,02,49,12.00
2013,08,18,02,50,12.00
2013,08,18,02,51,12.00
2013,08,18,02,52,12.00
2013,08,18,02,53,12.00
2013,08,18,02,54,12.00
2013,08,18,02,55,12.00
2013,08,18,02,56,11.90
2013,08,18,02,57,12.00
2013,08,18,02,58,11.90
2013,08,18,02,59,11.90
2013,08,18,03,00,11.90
2013,08,18,03,01,11.90
2013,08,18,03,02,11.90
2013,08,18,03,03,11.90
2013,08,18,03,04,11.90
2013,08,18,03,05,11.90
2013,08,18,03,06,11.90
2013,08,18,03,07,11.90
2013,08,18,03,08,11.90
2013,08,18,03,09,11.90
2013,08,18,03,10,11.90
2013,08,18,03,11,11.90
2013,08,18,03,12,11.90
2013,08,18,03,13,11.90
2013,08,18,03,14,11.90
2013,08,18,03,15,11.90
2013,08,18,03,16,11.90
2013,08,18,03,17,11.90
2013,08,18,03,18,11.80
2013,08,18,03,19,11.80
2013,08,18,03,20,11.80
2013,08,18,03,21,11.80
2013,08,18,03,22,11.80
2013,08,18,03,23,11.80
2013,08,18,03,24,11.80
2013,08,18,03,25,11.80
2013,08,18,03,26,11.80
2013,08,18,03,27,11.80
2013,08,18,03,28,11.80
2013,08,18,03,29,11.80
2013,08,18,03,30,11.80
2013,08,18,03,31,11.80
2013,08,18,03,32,11.80
2013,08,18,03,33,11.80
2013,08,18,03,34,11.80
2013,08,18,03,35,11.80
2013,08,18,03,36,11.80
2013,08,18,03,37,11.80
2013,08,18,03,38,11.80
2013,08,18,03,39,11.80
2013,08,18,03,40,11.80
2013,08,18,03,41,11.80
2013,08,18,03,42,11.80
2013,08,18,03,43,11.80
2013,08,18,03,44,11.80
2013,08,18,03,45,11.80
2013,08,18,03,46,11.80
2013,08,18,03,47,11.80
2013,08,18,03,48,11.80
2013,08,18,03,49,11.80
2013,08,18,03,50,11.80
2013,08,18,03,51,11.80
2013,08,18,03,52,11.90
2013,08,18,03,53,11.90
2013,08,18,03,54,11.90
2013,08,18,03,55,11.90
2013,08,18,03,56,11.90
2013,08,18,03,57,11.90
2013,08,18,03,58,11.90
2013,08,18,03,59,11.90
2013,08,18,04,00,11.90
2013,08,18,04,01,11.90
2013,08,18,04,02,11.90
2013,08,18,04,03,12.00
2013,08,18,04,04,12.00
2013,08,18,04,05,12.00
2013,08,18,04,06,12.00
2013,08,18,04,07,12.10
2013,08,18,04,08,12.10
2013,08,18,04,09,12.10
2013,08,18,04,10,12.10
2013,08,18,04,11,12.10
2013,08,18,04,12,12.10
2013,08,18,04,13,12.10
2013,08,18,04,14,12.20
2013,08,18,04,15,12.20
2013,08,18,04,16,12.20
2013,08,18,04,17,12.20
2013,08,18,04,18,12.20
2013,08,18,04,19,12.30
2013,08,18,04,20,12.30
2013,08,18,04,21,12.30
2013,08,18,04,22,12.30
2013,08,18,04,23,12.30
2013,08,18,04,24,12.30
2013,08,18,04,25,12.30
2013,08,18,04,26,12.30
2013,08,18,04,27,12.30
2013,08,18,04,28,12.30
2013,08,18,04,29,12.30
2013,08,18,04,30,12.40
2013,08,18,04,31,12.30
2013,08,18,04,32,12.40
2013,08,18,04,33,12.40
2013,08,18,04,34,12.40
2013,08,18,04,35,12.40
2013,08,18,04,36,12.40
2013,08,18,04,37,12.40
2013,08,18,04,38,12.40
2013,08,18,04,39,12.50
2013,08,18,04,40,12.50
2013,08,18,04,41,12.50
2013,08,18,04,42,12.50
2013,08,18,04,43,12.50
2013,08,18,04,44,12.50
2013,08,18,04,45,12.50
2013,08,18,04,46,12.50
2013,08,18,04,47,12.50
2013,08,18,04,48,12.50
2013,08,18,04,49,12.60
2013,08,18,04,50,12.60
2013,08,18,04,51,12.60
2013,08,18,04,52,12.60
2013,08,18,04,53,12.60
2013,08,18,04,54,12.50
2013,08,18,04,55,12.50
2013,08,18,04,56,12.50
2013,08,18,04,57,12.50
2013,08,18,04,58,12.50
2013,08,18,04,59,12.50
2013,08,18,05,00,12.50
2013,08,18,05,01,12.50
2013,08,18,05,02,12.50
2013,08,18,05,03,12.50
2013,08,18,05,04,12.50
2013,08,18,05,05,12.50
2013,08,18,05,06,12.50
2013,08,18,05,07,12.50
2013,08,18,05,08,12.50
2013,08,18,05,09,12.50
2013,08,18,05,10,12.50
2013,08,18,05,11,12.50
2013,08,18,05,12,12.50
2013,08,18,05,13,12.40
2013,08,18,05,14,12.40
2013,08,18,05,15,12.50
2013,08,18,05,16,12.40
2013,08,18,05,17,12.40
2013,08,18,05,18,12.40
2013,08,18,05,19,12.40
2013,08,18,05,20,12.50
2013,08,18,05,21,12.50
2013,08,18,05,22,12.40
2013,08,18,05,23,12.50
2013,08,18,05,24,12.50
2013,08,18,05,25,12.50
2013,08,18,05,26,12.50
2013,08,18,05,27,12.50
2013,08,18,05,28,12.50
2013,08,18,05,29,12.50
2013,08,18,05,30,12.60
2013,08,18,05,31,12.60
2013,08,18,05,32,12.60
2013,08,18,05,33,12.60
2013,08,18,05,34,12.60
2013,08,18,05,35,12.60
2013,08,18,05,36,12.70
2013,08,18,05,37,12.70
2013,08,18,05,38,12.70
2013,08,18,05,39,12.70
2013,08,18,05,40,12.70
2013,08,18,05,41,12.80
2013,08,18,05,42,12.80
2013,08,18,05,43,12.80
2013,08,18,05,44,12.80
2013,08,18,05,45,12.80
2013,08,18,05,46,12.80
2013,08,18,05,47,12.80
2013,08,18,05,48,12.90
2013,08,18,05,49,12.90
2013,08,18,05,50,12.90
2013,08,18,05,51,12.90
2013,08,18,05,52,12.90
2013,08,18,05,53,12.90
2013,08,18,05,54,13.00
2013,08,18,05,55,13.00
2013,08,18,05,56,13.00
2013,08,18,05,57,13.00
2013,08,18,05,58,13.00
2013,08,18,05,59,13.10
2013,08,18,06,00,13.10
2013,08,18,06,01,13.10
2013,08,18,06,02,13.10
2013,08,18,06,03,13.20
2013,08,18,06,04,13.20
2013,08,18,06,05,13.20
2013,08,18,06,06,13.30
2013,08,18,06,07,13.30
2013,08,18,06,08,13.30
2013,08,18,06,09,13.40
2013,08,18,06,10,13.50
2013,08,18,06,11,13.50
2013,08,18,06,12,13.60
2013,08,18,06,13,13.60
2013,08,18,06,14,13.70
2013,08,18,06,15,13.70
2013,08,18,06,16,13.80
2013,08,18,06,17,13.80
2013,08,18,06,18,13.90
2013,08,18,06,19,13.90
2013,08,18,06,20,13.90
2013,08,18,06,21,13.90
2013,08,18,06,22,13.90
2013,08,18,06,23,14.00
2013,08,18,06,24,14.00
2013,08,18,06,25,14.00
2013,08,18,06,26,14.00
2013,08,18,06,27,14.00
2013,08,18,06,28,14.00
2013,08,18,06,29,14.10
2013,08,18,06,30,14.10
2013,08,18,06,31,14.10
2013,08,18,06,32,14.10
2013,08,18,06,33,14.10
2013,08,18,06,34,14.10
2013,08,18,06,35,14.10
2013,08,18,06,36,14.10
2013,08,18,06,37,14.10
2013,08,18,06,38,14.10
2013,08,18,06,39,14.10
2013,08,18,06,40,14.10
2013,08,18,06,41,14.10
2013,08,18,06,42,14.00
2013,08,18,06,43,14.00
2013,08,18,06,44,14.00
2013,08,18,06,45,14.00
2013,08,18,06,46,14.00
2013,08,18,06,47,14.00
2013,08,18,06,48,14.00
2013,08,18,06,49,14.00
2013,08,18,06,50,14.00
2013,08,18,06,51,14.00
2013,08,18,06,52,14.00
2013,08,18,06,53,14.00
2013,08,18,06,54,14.00
2013,08,18,06,55,14.00
2013,08,18,06,56,14.00
2013,08,18,06,57,14.00
2013,08,18,06,58,14.00
2013,08,18,06,59,14.00
2013,08,18,07,00,14.00
2013,08,18,07,01,14.00
2013,08,18,07,02,14.00
2013,08,18,07,03,14.00
2013,08,18,07,04,14.00
2013,08,18,07,05,14.00
2013,08,18,07,06,14.10
2013,08,18,07,07,14.10
2013,08,18,07,08,14.10
2013,08,18,07,09,14.10
2013,08,18,07,10,14.10
2013,08,18,07,11,14.10
2013,08,18,07,12,14.10
2013,08,18,07,13,14.10
2013,08,18,07,14,14.20
2013,08,18,07,15,14.20
2013,08,18,07,16,14.20
2013,08,18,07,17,14.20
2013,08,18,07,18,14.30
2013,08,18,07,19,14.30
2013,08,18,07,20,14.30
2013,08,18,07,21,14.30
2013,08,18,07,22,14.30
2013,08,18,07,23,14.30
2013,08,18,07,24,14.40
2013,08,18,07,25,14.40
2013,08,18,07,26,14.40
2013,08,18,07,27,14.40
2013,08,18,07,28,14.40
2013,08,18,07,29,14.50
2013,08,18,07,30,14.50
2013,08,18,07,31,14.50
2013,08,18,07,32,14.50
2013,08,18,07,33,14.60
2013,08,18,07,34,14.60
2013,08,18,07,35,14.60
2013,08,18,07,36,14.60
2013,08,18,07,37,14.60
2013,08,18,07,38,14.60
2013,08,18,07,39,14.70
2013,08,18,07,40,14.70
2013,08,18,07,41,14.70
2013,08,18,07,42,14.70
2013,08,18,07,43,14.70
2013,08,18,07,44,14.70
2013,08,18,07,45,14.80
2013,08,18,07,46,14.80
2013,08,18,07,47,14.80
2013,08,18,07,48,14.80
2013,08,18,07,49,14.80
2013,08,18,07,50,14.80
2013,08,18,07,51,14.90
2013,08,18,07,52,14.90
2013,08,18,07,53,14.90
2013,08,18,07,54,14.90
2013,08,18,07,55,14.90
2013,08,18,07,56,14.90
2013,08,18,07,57,15.00
2013,08,18,07,58,15.00
2013,08,18,07,59,15.10
2013,08,18,08,00,15.10
2013,08,18,08,01,15.10
2013,08,18,08,02,15.10
2013,08,18,08,03,15.20
2013,08,18,08,04,15.20
2013,08,18,08,05,15.20
2013,08,18,08,06,15.30
2013,08,18,08,07,15.30
2013,08,18,08,08,15.40
2013,08,18,08,09,15.40
2013,08,18,08,10,15.40
2013,08,18,08,11,15.50
2013,08,18,08,12,15.50
2013,08,18,08,13,15.60
2013,08,18,08,14,15.60
2013,08,18,08,15,15.60
2013,08,18,08,16,15.70
2013,08,18,08,17,15.70
2013,08,18,08,18,15.80
2013,08,18,08,19,15.80
2013,08,18,08,20,15.90
2013,08,18,08,21,15.90
2013,08,18,08,22,16.00
2013,08,18,08,23,16.00
2013,08,18,08,24,16.10
2013,08,18,08,25,16.10
2013,08,18,08,26,16.10
2013,08,18,08,27,16.20
2013,08,18,08,28,16.20
2013,08,18,08,29,16.20
2013,08,18,08,30,16.30
2013,08,18,08,31,16.30
2013,08,18,08,32,16.40
2013,08,18,08,33,16.40
2013,08,18,08,34,16.50
2013,08,18,08,35,16.50
2013,08,18,08,36,16.60
2013,08,18,08,37,16.70
2013,08,18,08,38,16.70
2013,08,18,08,39,16.80
2013,08,18,08,40,16.90
2013,08,18,08,41,16.90
2013,08,18,08,42,16.90
2013,08,18,08,43,17.00
2013,08,18,08,44,17.00
2013,08,18,08,45,17.10
2013,08,18,08,46,17.10
2013,08,18,08,47,17.10
2013,08,18,08,48,17.10
2013,08,18,08,49,17.10
2013,08,18,08,50,17.10
2013,08,18,08,51,17.20
2013,08,18,08,52,17.20
2013,08,18,08,53,17.20
2013,08,18,08,54,17.20
2013,08,18,08,55,17.30
2013,08,18,08,56,17.30
2013,08,18,08,57,17.40
2013,08,18,08,58,17.40
2013,08,18,08,59,17.50
2013,08,18,09,00,17.50
2013,08,18,09,01,17.60
2013,08,18,09,02,17.70
2013,08,18,09,03,17.70
2013,08,18,09,04,17.80
2013,08,18,09,05,17.80
2013,08,18,09,06,17.90
2013,08,18,09,07,17.90
2013,08,18,09,08,18.00
2013,08,18,09,09,18.00
2013,08,18,09,10,18.10
2013,08,18,09,11,18.10
2013,08,18,09,12,18.10
2013,08,18,09,13,18.20
2013,08,18,09,14,18.20
2013,08,18,09,15,18.20
2013,08,18,09,16,18.20
2013,08,18,09,17,18.30
2013,08,18,09,18,18.30
2013,08,18,09,19,18.30
2013,08,18,09,20,18.40
2013,08,18,09,21,18.40
2013,08,18,09,22,18.50
2013,08,18,09,23,18.60
2013,08,18,09,24,18.70
2013,08,18,09,25,18.80
2013,08,18,09,26,18.90
2013,08,18,09,27,18.90
2013,08,18,09,28,19.00
2013,08,18,09,29,19.10
2013,08,18,09,30,19.10
2013,08,18,09,31,19.10
2013,08,18,09,32,19.10
2013,08,18,09,33,19.20
2013,08,18,09,34,19.20
2013,08,18,09,35,19.20
2013,08,18,09,36,19.20
2013,08,18,09,37,19.20
2013,08,18,09,38,19.30
2013,08,18,09,39,19.30
2013,08,18,09,40,19.30
2013,08,18,09,41,19.20
2013,08,18,09,42,19.20
2013,08,18,09,43,19.20
2013,08,18,09,44,19.20
2013,08,18,09,45,19.10
2013,08,18,09,46,19.10
2013,08,18,09,47,19.00
2013,08,18,09,48,18.90
2013,08,18,09,49,18.90
2013,08,18,09,50,18.80
2013,08,18,09,51,18.80
2013,08,18,09,52,18.80
2013,08,18,09,53,18.80
2013,08,18,09,54,18.80
2013,08,18,09,55,18.80
2013,08,18,09,56,18.90
2013,08,18,09,57,18.90
2013,08,18,09,58,18.90
2013,08,18,09,59,18.90
2013,08,18,10,00,18.90
2013,08,18,10,01,18.90
2013,08,18,10,02,19.00
2013,08,18,10,03,19.00
2013,08,18,10,04,19.10
2013,08,18,10,05,19.20
2013,08,18,10,06,19.20
2013,08,18,10,07,19.30
2013,08,18,10,08,19.30
2013,08,18,10,09,19.30
2013,08,18,10,10,19.40
2013,08,18,10,11,19.40
2013,08,18,10,12,19.30
2013,08,18,10,13,19.30
2013,08,18,10,14,19.30
2013,08,18,10,15,19.30
2013,08,18,10,16,19.30
2013,08,18,10,17,19.30
2013,08,18,10,18,19.30
2013,08,18,10,19,19.30
2013,08,18,10,20,19.30
2013,08,18,10,21,19.30
2013,08,18,10,22,19.30
2013,08,18,10,23,19.20
2013,08,18,10,24,19.20
2013,08,18,10,25,19.10
2013,08,18,10,26,19.10
2013,08,18,10,27,19.10
2013,08,18,10,28,19.10
2013,08,18,10,29,19.20
2013,08,18,10,30,19.30
2013,08,18,10,31,19.30
2013,08,18,10,32,19.20
2013,08,18,10,33,19.20
2013,08,18,10,34,19.20
2013,08,18,10,35,19.20
2013,08,18,10,36,19.20
2013,08,18,10,37,19.20
2013,08,18,10,38,19.20
2013,08,18,10,39,19.20
2013,08,18,10,40,19.20
2013,08,18,10,41,19.20
2013,08,18,10,42,19.20
2013,08,18,10,43,19.20
2013,08,18,10,44,19.20
2013,08,18,10,45,19.20
2013,08,18,10,46,19.20
2013,08,18,10,47,19.20
2013,08,18,10,48,19.20
2013,08,18,10,49,19.20
2013,08,18,10,50,19.10
2013,08,18,10,51,19.10
2013,08,18,10,52,19.00
2013,08,18,10,53,19.00
2013,08,18,10,54,19.00
2013,08,18,10,55,19.00
2013,08,18,10,56,19.00
2013,08,18,10,57,19.00
2013,08,18,10,58,19.10
2013,08,18,10,59,19.10
2013,08,18,11,00,19.00
2013,08,18,11,01,18.90
2013,08,18,11,02,18.90
2013,08,18,11,03,18.90
2013,08,18,11,04,18.80
2013,08,18,11,05,18.80
2013,08,18,11,06,18.70
2013,08,18,11,07,18.70
2013,08,18,11,08,18.70
2013,08,18,11,09,18.60
2013,08,18,11,10,18.50
2013,08,18,11,11,18.40
2013,08,18,11,12,18.40
2013,08,18,11,13,18.40
2013,08,18,11,14,18.40
2013,08,18,11,15,18.40
2013,08,18,11,16,18.40
2013,08,18,11,17,18.40
2013,08,18,11,18,18.50
2013,08,18,11,19,18.50
2013,08,18,11,20,18.60
2013,08,18,11,21,18.70
2013,08,18,11,22,18.70
2013,08,18,11,23,18.80
2013,08,18,11,24,18.80
2013,08,18,11,25,18.90
2013,08,18,11,26,19.00
2013,08,18,11,27,19.10
2013,08,18,11,28,19.10
2013,08,18,11,29,19.20
2013,08,18,11,30,19.30
2013,08,18,11,31,19.30
2013,08,18,11,32,19.30
2013,08,18,11,33,19.40
2013,08,18,11,34,19.40
2013,08,18,11,35,19.40
2013,08,18,11,36,19.40
2013,08,18,11,37,19.30
2013,08,18,11,38,19.30
2013,08,18,11,39,19.30
2013,08,18,11,40,19.30
2013,08,18,11,41,19.30
2013,08,18,11,42,19.20
2013,08,18,11,43,19.20
2013,08,18,11,44,19.10
2013,08,18,11,45,19.00
2013,08,18,11,46,18.90
2013,08,18,11,47,18.90
2013,08,18,11,48,18.80
2013,08,18,11,49,18.70
2013,08,18,11,50,18.60
2013,08,18,11,51,18.50
2013,08,18,11,52,18.40
2013,08,18,11,53,18.30
2013,08,18,11,54,18.30
2013,08,18,11,55,18.20
2013,08,18,11,56,18.20
2013,08,18,11,57,18.10
2013,08,18,11,58,18.10
2013,08,18,11,59,18.00
2013,08,18,12,00,18.00
2013,08,18,12,01,17.90
2013,08,18,12,02,17.90
2013,08,18,12,03,17.80
2013,08,18,12,04,17.80
2013,08,18,12,05,17.70
2013,08,18,12,06,17.70
2013,08,18,12,07,17.60
2013,08,18,12,08,17.60
2013,08,18,12,09,17.60
2013,08,18,12,10,17.60
2013,08,18,12,11,17.50
2013,08,18,12,12,17.50
2013,08,18,12,13,17.50
2013,08,18,12,14,17.60
2013,08,18,12,15,17.70
2013,08,18,12,16,17.70
2013,08,18,12,17,17.70
2013,08,18,12,18,17.70
2013,08,18,12,19,17.70
2013,08,18,12,20,17.70
2013,08,18,12,21,17.80
2013,08,18,12,22,17.80
2013,08,18,12,23,17.90
2013,08,18,12,24,17.90
2013,08,18,12,25,18.00
2013,08,18,12,26,18.10
2013,08,18,12,27,18.20
2013,08,18,12,28,18.30
2013,08,18,12,29,18.30
2013,08,18,12,30,18.30
2013,08,18,12,31,18.40
2013,08,18,12,32,18.50
2013,08,18,12,33,18.50
2013,08,18,12,34,18.50
2013,08,18,12,35,18.60
2013,08,18,12,36,18.60
2013,08,18,12,37,18.60
2013,08,18,12,38,18.70
2013,08,18,12,39,18.70
2013,08,18,12,40,18.80
2013,08,18,12,41,18.80
2013,08,18,12,42,18.80
2013,08,18,12,43,18.90
2013,08,18,12,44,19.00
2013,08,18,12,45,19.10
2013,08,18,12,46,19.20
2013,08,18,12,47,19.30
2013,08,18,12,48,19.30
2013,08,18,12,49,19.40
2013,08,18,12,50,19.50
2013,08,18,12,51,19.60
2013,08,18,12,52,19.60
2013,08,18,12,53,19.70
2013,08,18,12,54,19.80
2013,08,18,12,55,19.80
2013,08,18,12,56,19.80
2013,08,18,12,57,19.80
2013,08,18,12,58,19.80
2013,08,18,12,59,19.80
2013,08,18,13,00,19.80
2013,08,18,13,01,19.80
2013,08,18,13,02,19.70
2013,08,18,13,03,19.70
2013,08,18,13,04,19.60
2013,08,18,13,05,19.60
2013,08,18,13,06,19.60
2013,08,18,13,07,19.50
2013,08,18,13,08,19.50
2013,08,18,13,09,19.50
2013,08,18,13,10,19.40
2013,08,18,13,11,19.40
2013,08,18,13,12,19.40
2013,08,18,13,13,19.40
2013,08,18,13,14,19.30
2013,08,18,13,15,19.30
2013,08,18,13,16,19.40
2013,08,18,13,17,19.40
2013,08,18,13,18,19.40
2013,08,18,13,19,19.40
2013,08,18,13,20,19.40
2013,08,18,13,21,19.30
2013,08,18,13,22,19.30
2013,08,18,13,23,19.30
2013,08,18,13,24,19.30
2013,08,18,13,25,19.40
2013,08,18,13,26,19.40
2013,08,18,13,27,19.40
2013,08,18,13,28,19.50
2013,08,18,13,29,19.50
2013,08,18,13,30,19.50
2013,08,18,13,31,19.60
2013,08,18,13,32,19.60
2013,08,18,13,33,19.70
2013,08,18,13,34,19.70
2013,08,18,13,35,19.70
2013,08,18,13,36,19.70
2013,08,18,13,37,19.70
2013,08,18,13,38,19.70
2013,08,18,13,39,19.70
2013,08,18,13,40,19.80
2013,08,18,13,41,19.80
2013,08,18,13,42,19.90
2013,08,18,13,43,19.90
2013,08,18,13,44,20.00
2013,08,18,13,45,20.00
2013,08,18,13,46,20.10
2013,08,18,13,47,20.10
2013,08,18,13,48,20.20
2013,08,18,13,49,20.30
2013,08,18,13,50,20.30
2013,08,18,13,51,20.30
2013,08,18,13,52,20.40
2013,08,18,13,53,20.40
2013,08,18,13,54,20.40
2013,08,18,13,55,20.50
2013,08,18,13,56,20.50
2013,08,18,13,57,20.60
2013,08,18,13,58,20.60
2013,08,18,13,59,20.70
2013,08,18,14,00,20.70
2013,08,18,14,01,20.70
2013,08,18,14,02,20.70
2013,08,18,14,03,20.70
2013,08,18,14,04,20.70
2013,08,18,14,05,20.80
2013,08,18,14,06,20.80
2013,08,18,14,07,20.80
2013,08,18,14,08,20.80
2013,08,18,14,09,20.80
2013,08,18,14,10,20.70
2013,08,18,14,11,20.70
2013,08,18,14,12,20.70
2013,08,18,14,13,20.70
2013,08,18,14,14,20.70
2013,08,18,14,15,20.70
2013,08,18,14,16,20.70
2013,08,18,14,17,20.70
2013,08,18,14,18,20.70
2013,08,18,14,19,20.70
2013,08,18,14,20,20.70
2013,08,18,14,21,20.70
2013,08,18,14,22,20.70
2013,08,18,14,23,20.70
2013,08,18,14,24,20.80
2013,08,18,14,25,20.80
2013,08,18,14,26,20.80
2013,08,18,14,27,20.80
2013,08,18,14,28,20.90
2013,08,18,14,29,20.90
2013,08,18,14,30,20.90
2013,08,18,14,31,20.90
2013,08,18,14,32,20.90
2013,08,18,14,33,20.90
2013,08,18,14,34,20.90
2013,08,18,14,35,20.90
2013,08,18,14,36,20.90
2013,08,18,14,37,20.80
2013,08,18,14,38,20.80
2013,08,18,14,39,20.80
2013,08,18,14,40,20.80
2013,08,18,14,41,20.80
2013,08,18,14,42,20.90
2013,08,18,14,43,20.90
2013,08,18,14,44,20.90
2013,08,18,14,45,20.90
2013,08,18,14,46,21.00
2013,08,18,14,47,21.00
2013,08,18,14,48,21.10
2013,08,18,14,49,21.10
2013,08,18,14,50,21.10
2013,08,18,14,51,21.10
2013,08,18,14,52,21.20
2013,08,18,14,53,21.20
2013,08,18,14,54,21.20
2013,08,18,14,55,21.20
2013,08,18,14,56,21.30
2013,08,18,14,57,21.30
2013,08,18,14,58,21.30
2013,08,18,14,59,21.40
2013,08,18,15,00,21.40
2013,08,18,15,01,21.40
2013,08,18,15,02,21.40
2013,08,18,15,03,21.40
2013,08,18,15,04,21.40
2013,08,18,15,05,21.50
2013,08,18,15,06,21.50
2013,08,18,15,07,21.50
2013,08,18,15,08,21.50
2013,08,18,15,09,21.50
2013,08,18,15,10,21.50
2013,08,18,15,11,21.50
2013,08,18,15,12,21.50
2013,08,18,15,13,21.50
2013,08,18,15,14,21.50
2013,08,18,15,15,21.60
2013,08,18,15,16,21.60
2013,08,18,15,17,21.60
2013,08,18,15,18,21.60
2013,08,18,15,19,21.60
2013,08,18,15,20,21.60
2013,08,18,15,21,21.50
2013,08,18,15,22,21.60
2013,08,18,15,23,21.60
2013,08,18,15,24,21.60
2013,08,18,15,25,21.60
2013,08,18,15,26,21.60
2013,08,18,15,27,21.60
2013,08,18,15,28,21.60
2013,08,18,15,29,21.60
2013,08,18,15,30,21.60
2013,08,18,15,31,21.70
2013,08,18,15,32,21.70
2013,08,18,15,33,21.70
2013,08,18,15,34,21.70
2013,08,18,15,35,21.70
2013,08,18,15,36,21.70
2013,08,18,15,37,21.80
2013,08,18,15,38,21.80
2013,08,18,15,39,21.80
2013,08,18,15,40,21.90
2013,08,18,15,41,21.90
2013,08,18,15,42,22.00
2013,08,18,15,43,22.10
2013,08,18,15,44,22.10
2013,08,18,15,45,22.10
2013,08,18,15,46,22.10
2013,08,18,15,47,22.20
2013,08,18,15,48,22.20
2013,08,18,15,49,22.20
2013,08,18,15,50,22.20
2013,08,18,15,51,22.30
2013,08,18,15,52,22.30
2013,08,18,15,53,22.30
2013,08,18,15,54,22.30
2013,08,18,15,55,22.40
2013,08,18,15,56,22.40
2013,08,18,15,57,22.50
2013,08,18,15,58,22.50
2013,08,18,15,59,22.60
2013,08,18,16,00,22.60
2013,08,18,16,01,22.60
2013,08,18,16,02,22.70
2013,08,18,16,03,22.70
2013,08,18,16,04,22.70
2013,08,18,16,05,22.70
2013,08,18,16,06,22.70
2013,08,18,16,07,22.70
2013,08,18,16,08,22.70
2013,08,18,16,09,22.70
2013,08,18,16,10,22.80
2013,08,18,16,11,22.80
2013,08,18,16,12,22.80
2013,08,18,16,13,22.80
2013,08,18,16,14,22.80
2013,08,18,16,15,22.80
2013,08,18,16,16,22.80
2013,08,18,16,17,22.80
2013,08,18,16,18,22.80
2013,08,18,16,19,22.90
2013,08,18,16,20,22.90
2013,08,18,16,21,23.00
2013,08,18,16,22,23.00
2013,08,18,16,23,23.10
2013,08,18,16,24,23.20
2013,08,18,16,25,23.30
2013,08,18,16,26,23.40
2013,08,18,16,27,23.50
2013,08,18,16,28,23.60
2013,08,18,16,29,23.70
2013,08,18,16,30,23.80
2013,08,18,16,31,23.80
2013,08,18,16,32,23.90
2013,08,18,16,33,23.90
2013,08,18,16,34,24.00
2013,08,18,16,35,24.00
2013,08,18,16,36,23.90
2013,08,18,16,37,23.90
2013,08,18,16,38,23.90
2013,08,18,16,39,23.90
2013,08,18,16,40,23.90
2013,08,18,16,41,23.90
2013,08,18,16,42,23.90
2013,08,18,16,43,23.90
2013,08,18,16,44,24.00
2013,08,18,16,45,24.00
2013,08,18,16,46,24.10
2013,08,18,16,47,24.10
2013,08,18,16,48,24.20
2013,08,18,16,49,24.20
2013,08,18,16,50,24.20
2013,08,18,16,51,24.20
2013,08,18,16,52,24.20
2013,08,18,16,53,24.20
2013,08,18,16,54,24.20
2013,08,18,16,55,24.20
2013,08,18,16,56,24.20
2013,08,18,16,57,24.20
2013,08,18,16,58,24.20
2013,08,18,16,59,24.30
2013,08,18,17,00,24.30
2013,08,18,17,01,24.20
2013,08,18,17,02,24.10
2013,08,18,17,03,24.00
2013,08,18,17,04,24.00
2013,08,18,17,05,23.90
2013,08,18,17,06,23.90
2013,08,18,17,07,23.90
2013,08,18,17,08,23.90
2013,08,18,17,09,23.90
2013,08,18,17,10,23.90
2013,08,18,17,11,23.80
2013,08,18,17,12,23.80
2013,08,18,17,13,23.90
2013,08,18,17,14,23.90
2013,08,18,17,15,24.00
2013,08,18,17,16,24.00
2013,08,18,17,17,24.00
2013,08,18,17,18,24.00
2013,08,18,17,19,23.90